Probability
0 0 0 0 0 0 0 0 0 0 0 0 0 0 0 0 0 0 0 0 0 0 0 0 0 0 0 0 0 0 0 0 0 0 0 0 0 0 0 0 0 0 0 0
0 0 0 0 0 0 0 0 0 0 0 0 0 0 0 0 0 0 0 0 0 0 0 0 0 0 0 0 0 0 0 0 0 0 0 0 0 0 0 0 0 0 0 0
0 0 0 0 0 0 0 0 0 0 0 0 0 0 0 0 0 0 0 0 0 0 0 0 0 0 0 0 0 0 0 0 0 0 0 0 0 0 0 0 0 0 0 0
0 0 0 0 0 0 0 0 0 0 0 0 0 0 0 0 0 0 0 0 0 0 0 0 0 0 0 0 0 0 0 0 0 0 0 0 0 0 0 0 0 0 0 0
0 0 0 0 0 0 0 0 0 0 0 0 0 0 0 0 0 0 0 0 0 0 0 0 0 0 0 0 0 0 0 0 0 0 0 0 0 0 0 0 0 0 0 0
0 0 0 0 0 0 0 0 0 0 0 0 0 0 0 0 0 0 0 0 0 0 0 0 0 0 0 0 0 0 0 0 0 0 0 0 0 0 0 0 0 0 0 0
0 0 0 0 0 0 0 0 0 0 0 0 0 0 0 0 0 0 0 0 0 0 0 0 0 0 0 0 0 0 0 0 0 0 0 0 0 0 0 0 0 0 0 0
0 0 0 0 0 0 0 0 0 0 0 0 0 0 0 0 0 0 0 0 0 0 0 0 0 0 0 0 0 0 0 0 0 0 0 0 0 0 0 0 0 0 0 0
0 0 0 0 0 0 0 0 0 0 0 0 0 0 0 0 0 0 0 0 0 0 0 0 0 0 0 0 0 0 0 0 0 0 0 0 0 0 0 0 0 0 0 0
0 0 0 0 0 0 0 0 0 0 0 0 0 0 0 0 0 0 0 0 0 0 0 0 0 0 0 0 0 0 0 0 0 0 0 0 0 0 0 0 0 0 0 0
0 0 0 0 0 0 0 0 0 0 0 0 0 0 0 0 0 0 0 0 0 0 0 0 0 0 0 0 0 0 0 0 0 0 0 0 0 0 0 0 0 0 0 0
0 0 0 0 0 0 0 0 0 0 0 0 0 0 0 0 0 0 0 0 0 0 0 0 0 0 0 0 0 0 0 0 0 0 0 0 0 0 0 0 0 0 0 0
0 0 0 0 0 0 0 0 0 0 0 0 0 0 0 0 0 0 0 0 0 0 0 0 0 0 0 0 0 0 0 0 0 0 0 0 0 0 0 0 0 0 0 0
0 0 0 0 0 0 0 0 0 0 0 0 0 0 0 0 0 0 0 0 0 0 0 0 0 0 0 0 0 0 0 0 0 0 0 0 0 0 0 0 0 0 0 0
0 0 0 0 0 0 0 0 0 0 0 0 0 0 0 0 0 0 0 0 0 0 0 0 0 0 0 0 0 0 0 0 0 0 0 0 0 0 0 0 0 0 0 0
0 0 0 0 0 0 0 0 0 0 0 0 0 0 0 0 0 0 0 0 0 0 0 0 0 0 0 0 0 0 0 0 0 0 0 0 0 0 0 0 0 0 0 0
0 0 0 0 0 0 0 0 0 0 0 0 0 0 0 0 0 0 0 0 0 0 0 0 0 0 0 0 0 0 0 0 0 0 0 0 0 0 0 0 0 0 0 0
0 0 0 0 0 0 0 0 0 0 0 0 0 0 0 0 0 0 0 0 0 0 0 0 0 0 0 0 0 0 0 0 0 0 0 0 0 0 0 0 0 0 0 0
0 0 0 0 0 0 0 0 0 0 0 0 0 0 0 0 0 0 0 0 0 0 0 0 0 0 0 0 0 0 0 0 0 0 0 0 0 0 0 0 0 0 0 0
0 0 0 0 0 0 0 0 0 0 0 0 0 0 0 0 0 0 0 0 0 0 0 0 0 0 0 0 0 0 0 0 0 0 0 0 0 0 0 0 0 0 0 0
0 0 0 0 0 0 0 0 0 0 0 0 0 0 0 0 0 0 0 0 0 0 0 0 0 0 0 0 0 0 0 0 0 0 0 0 0 0 0 0 0 0 0 0
0 0 0 0 0 0 0 0 0 0 0 0 0 0 0 0 0 0 0 0 0 0 0 0 0 0 0 0 0 0 0 0 0 0 0 0 0 0 0 0 0 0 0 0
0 0 0 0 0 0 0 0 0 0 0 0 0 0 0 0 0 0 0 0 0 0 0 0 0 0 0 0 0 0 0 0 0 0 0 0 0 0 0 0 0 0 0 0
0 0 0 0 0 0 0 0 0 0 0 0 0 0 0 0 0 0 0 0 0 0 0 0 0 0 0 0 0 0 0 0 0 0 0 0 0 0 0 0 0 0 0 0
0 0 0 0 0 0 0 0 0 0 0 0 0 0 0 0 0 0 0 0 0 0 0 0 0 0 0 0 0 0 0 0 0 0 0 0 0 0 0 0 0 0 0 0
0 0 0 0 0 0 0 0 0 0 0 0 0 0 0 0 0 0 0 0 0 0 0 0 0 0 0 0 0 0 0 0 0 0 0 0 0 0 0 0 0 0 0 0
Wind_Speed
2 4 2 5 5 3 2 2 2 3 2 2 5 9 10 6 5 6 6 6 7 8 6 4 5 5 5 5 5 6 5 5 4 3 2 2 2 1 1 1 2 2 2 3
3 2 4 2 2 2 2 1 2 3 2 1 4 9 8 6 6 8 8 9 9 6 4 4 5 5 6 6 6 6 6 6 5 4 3 2 2 1 1 1 1 1 1 3
5 3 2 2 2 2 2 3 3 2 4 2 3 7 5 5 4 5 7 7 7 8 8 7 7 7 6 6 7 6 6 6 5 4 2 2 1 1 0 1 1 1 1 2
2 3 1 2 2 3 3 2 3 1 1 3 0 5 7 4 5 6 7 7 7 7 7 7 7 7 8 7 6 6 6 6 6 5 5 5 4 3 3 2 2 2 2 2
2 1 2 2 2 3 3 1 2 1 1 2 1 3 10 3 6 7 8 8 8 8 8 8 8 8 7 6 6 5 5 6 5 5 6 5 4 3 1 1 2 2 1 2
1 1 1 2 0 1 2 3 4 4 3 3 4 4 9 5 7 6 7 7 7 7 7 7 6 5 5 4 4 5 6 6 6 6 6 6 5 4 3 3 3 2 1 2
1 1 1 1 2 2 3 4 3 4 3 6 2 4 12 8 7 7 7 7 6 6 6 6 6 6 5 5 5 6 7 6 6 6 6 6 6 6 6 5 5 4 2 2
3 3 3 1 3 4 3 4 6 5 5 5 2 7 10 7 5 4 4 4 4 4 5 6 7 6 6 6 6 6 7 7 7 7 7 6 6 5 4 5 4 5 4 4
6 4 0 0 0 4 4 3 3 4 1 3 6 8 10 4 3 2 3 3 5 5 5 6 6 6 6 6 7 7 7 6 7 7 6 6 6 5 5 5 4 4 4 3
5 3 1 1 1 1 2 4 4 4 3 4 6 6 6 5 5 4 4 5 5 4 4 4 5 6 6 6 6 6 7 8 7 7 7 6 6 6 5 5 5 5 4 3
3 4 0 0 5 6 4 3 4 3 4 4 4 9 7 6 5 6 6 5 5 5 5 5 5 5 5 4 5 6 6 6 6 7 6 6 6 5 5 5 6 6 5 5
4 5 2 5 2 2 4 5 7 5 5 4 3 10 5 4 4 4 4 4 4 4 4 4 4 4 4 5 5 6 6 6 6 6 6 6 6 5 5 6 6 5 5 5
6 5 2 3 2 2 4 4 5 4 3 4 5 10 4 2 3 3 4 4 4 3 4 3 3 4 5 5 5 6 6 6 6 5 6 6 6 6 6 6 6 5 5 5
5 4 7 9 6 6 6 6 6 6 5 7 11 11 9 7 7 7 5 4 4 4 3 3 3 4 4 5 5 5 6 5 5 5 6 7 7 7 7 6 5 5 5 5
4 4 5 5 3 3 6 8 10 12 12 11 10 11 14 10 8 7 5 4 3 4 4 5 4 4 4 4 4 5 5 5 5 5 6 7 6 5 5 5 5 4 4 5
3 4 2 3 3 4 7 10 12 13 12 13 12 16 13 9 5 5 6 5 6 6 6 6 5 5 5 5 5 5 5 5 5 6 6 5 4 4 4 5 4 4 4 4
5 5 4 4 1 1 10 13 14 10 10 11 16 17 7 6 7 8 7 6 7 7 6 6 6 6 5 5 5 5 5 4 4 5 5 4 4 4 4 4 4 5 5 4
7 5 3 2 2 9 10 4 10 11 10 13 12 10 8 9 7 6 5 6 7 6 6 5 5 5 4 4 3 3 3 3 4 4 4 4 4 4 4 4 4 4 4 4
6 7 4 4 5 10 9 4 8 9 10 11 14 13 9 4 3 6 4 4 6 5 4 4 4 4 3 3 2 2 2 2 3 4 4 4 4 4 4 5 4 3 3 3
4 5 5 5 5 10 8 3 4 5 7 5 8 10 7 2 3 6 3 2 3 3 2 2 2 1 2 2 1 2 3 3 4 5 4 3 4 5 5 5 4 2 3 3
5 5 7 7 8 11 7 2 5 6 8 3 4 6 5 7 7 4 1 1 2 2 2 1 1 1 2 2 1 2 3 4 4 2 2 2 3 4 4 3 2 3 2 2
10 8 8 7 8 12 4 6 8 7 2 1 2 3 4 5 4 3 2 2 2 2 1 1 1 2 2 1 2 2 4 4 2 1 2 2 2 2 2 3 3 3 3 3
9 10 8 11 11 3 5 7 5 2 2 2 2 2 3 3 3 3 3 3 2 2 2 1 1 2 2 1 2 3 4 2 1 1 2 1 1 2 2 3 3 3 3 3
5 2 3 6 9 5 5 4 4 3 4 4 3 3 3 3 4 3 3 3 3 2 2 1 1 2 2 2 2 3 2 1 2 2 2 1 2 2 2 2 3 3 3 3
7 6 5 8 8 5 6 7 6 4 4 4 3 2 3 4 4 4 4 4 3 2 2 1 2 3 3 3 3 2 1 1 2 2 1 1 2 2 2 2 2 3 3 4
8 9 9 10 7 6 7 5 5 6 6 6 4 4 3 4 5 4 4 4 3 3 2 2 2 3 3 2 2 2 1 2 3 2 2 2 2 2 2 2 1 1 1 1
Wind_Direction
81 85 182 211 206 199 165 184 249 266 258 217 238 260 269 256 227 229 227 221 222 227 226 205 194 187 178 180 181 181 176 170 159 157 163 167 195 204 243 224 200 184 180 172
66 248 238 219 202 184 180 219 275 298 335 263 271 275 270 249 228 221 218 221 223 225 214 199 188 184 188 190 191 188 185 179 178 180 177 172 175 176 201 222 182 186 183 181
163 233 238 162 142 170 210 200 219 256 338 350 329 301 275 266 237 230 223 221 219 212 206 200 195 195 194 196 196 196 193 185 184 170 150 121 104 76 142 265 225 213 195 187
204 279 140 141 189 170 229 218 190 174 29 294 59 290 283 261 261 243 235 228 226 221 208 198 197 198 201 205 200 195 187 186 183 171 173 170 181 194 210 219 217 211 199 190
226 213 148 179 217 179 202 134 118 115 131 311 269 231 279 265 259 250 235 227 226 219 206 201 200 201 201 197 193 193 184 187 184 182 185 185 197 206 200 209 209 206 209 200
217 243 196 201 155 159 131 65 52 48 68 278 223 197 271 236 228 241 234 228 223 215 208 207 203 195 194 188 187 188 185 190 187 188 189 193 198 195 187 209 208 207 216 218
327 295 313 109 95 45 92 98 38 0 353 253 222 218 251 244 232 224 225 226 224 210 203 205 202 199 197 191 192 191 188 195 194 193 197 202 203 199 203 210 205 202 208 224
171 259 229 196 166 169 180 153 162 195 228 273 264 238 253 256 256 239 222 219 218 211 209 210 208 203 202 199 197 195 194 198 196 198 205 208 205 205 215 208 202 206 210 217
177 222 20 194 209 150 154 192 166 131 87 283 267 275 292 267 266 242 225 218 223 222 218 217 213 209 206 203 203 200 200 202 202 203 205 207 207 209 216 212 208 212 216 209
158 180 258 291 61 317 162 149 120 139 168 256 282 266 252 259 254 247 237 231 236 235 233 228 216 212 208 205 205 203 205 207 206 205 206 210 211 214 215 212 213 213 213 204
146 145 233 200 201 191 165 173 161 152 173 181 264 268 228 225 228 224 233 233 231 231 232 232 229 217 207 203 203 205 210 211 209 207 208 211 214 216 215 214 216 214 211 204
151 131 206 238 235 229 199 192 165 172 222 206 224 267 263 234 242 224 234 242 243 236 235 232 225 213 208 210 212 212 213 213 215 210 206 211 213 214 218 218 219 212 209 208
147 136 103 338 289 239 228 213 187 160 150 185 206 260 296 306 288 267 254 259 261 251 247 244 229 218 218 218 218 219 217 218 217 211 208 213 214 214 219 219 216 209 206 203
131 162 187 203 214 179 203 211 186 169 196 219 228 254 281 282 280 281 274 259 259 263 256 248 240 234 230 225 222 223 227 221 215 209 209 214 217 218 221 218 210 206 201 195
142 204 224 247 256 206 221 217 199 206 211 218 238 242 259 263 261 267 268 264 262 265 258 249 243 241 238 235 233 230 229 223 213 209 212 218 219 214 211 209 206 201 199 198
158 192 190 262 239 234 255 240 218 224 227 237 257 266 261 265 261 262 260 255 254 258 252 247 244 240 239 235 235 235 231 225 210 210 217 218 211 205 204 207 200 192 197 196
173 163 173 245 269 345 261 226 204 208 211 203 229 246 260 265 254 247 247 245 248 254 252 243 237 234 235 234 229 229 232 224 211 216 219 213 206 207 208 200 193 196 198 196
166 162 176 182 116 235 242 196 191 207 228 218 236 252 251 249 259 256 241 237 252 256 253 247 242 243 243 240 236 234 226 216 215 217 220 213 204 207 204 195 197 201 196 197
182 168 171 173 222 268 285 231 181 194 248 223 232 250 258 269 308 278 249 231 239 246 249 246 241 245 247 242 231 213 213 212 216 223 223 216 204 201 197 201 204 199 192 200
187 179 177 185 208 239 249 222 177 145 267 246 220 237 243 178 256 264 254 244 252 263 269 269 273 276 266 267 222 195 209 210 227 231 229 217 201 196 199 203 200 190 187 194
171 188 201 205 229 255 253 196 130 179 245 264 211 223 206 205 227 254 262 257 253 265 277 287 288 266 262 263 202 208 220 231 240 240 220 204 199 196 193 186 178 171 169 165
178 180 195 183 216 247 205 146 183 218 263 250 228 217 212 229 248 261 262 266 277 298 306 304 293 290 289 251 192 220 242 254 247 195 193 201 194 180 167 164 164 162 162 164
202 194 189 200 218 232 171 192 213 199 232 246 236 233 210 237 253 259 269 266 266 266 283 290 264 290 306 272 211 226 254 264 200 169 188 195 175 164 158 162 165 161 168 176
238 208 203 249 259 253 239 245 254 239 237 246 237 227 203 228 245 252 261 263 260 260 265 276 278 287 294 290 266 254 263 220 170 178 189 172 161 156 148 158 167 174 181 187
210 178 209 249 264 284 258 228 232 241 253 259 253 233 223 222 240 236 247 251 248 254 260 247 244 256 268 277 275 283 265 171 168 173 178 169 165 164 156 159 180 193 204 200
201 191 199 231 224 217 250 243 220 224 239 241 242 253 246 226 237 240 247 247 242 244 245 255 263 266 271 273 277 284 241 182 168 168 173 176 173 170 167 163 132 172 203 203